Location: Bishop�s Knoyle
(51.0728°N, 2.1714°W)
Time: 20:46:16
(UTC+00:00)

N. Korean satellite - Pass Details

Date: 03 October 2021
Orbit: 450 x 495 km, 97.3° (Epoch: 23 October)

Event Time Altitude Azimuth Distance (km) Brightness Sun altitude
Rises 04:27:22 0° 28° (NNE) 2,555 10.9 -17.2°
Reaches altitude 10° 04:30:06 10° 51° (NE) 1,678 10.3 -16.8°
Maximum altitude 04:32:22 16° 90° (E) 1,359 9.9 -16.4°
Drops below altitude 10° 04:34:39 10° 130° (SE) 1,682 9.8 -16.1°
Sets 04:37:23 0° 152° (SSE) 2,563 10.4 -15.7°
